Location: Unspecified
(48.5670°N, 0.0000°E)
Time: 22:22:59
(UTC+00:00)

Transit 4A - Pass Details

Date: 26 August 2019
Orbit: 865 x 980 km, 66.8° (Epoch: 15 September)

Event Time Altitude Azimuth Distance (km) Brightness Sun altitude
Rises 01:31:56 0° 325° (NW) 3,648 11.4 -27.6°
Reaches altitude 10° 01:34:32 10° 327° (NNW) 2,684 10.6 -27.4°
Maximum altitude 01:40:47 72° 52° (NE) 980 8.0 -27.0°
Enters shadow 01:44:19 26° 132° (SE) 1,712 9.1 -26.7°
